EHI
0 0 0 0 0 0 0 0 0 0 0 0 0 1 0 0 0 1 3 3 3 3 3 3 5 7 9 11 14 15 15 15 16 20 22 22 20 18 15 12 10 8 8 8
0 0 0 0 0 0 0 0 0 0 0 0 0 1 0 0 1 2 3 4 3 3 2 3 4 4 5 7 9 10 11 12 13 15 17 17 15 13 11 9 7 5 5 6
0 0 0 0 0 0 0 0 0 0 0 0 0 0 0 0 1 2 3 4 3 2 1 2 2 1 1 2 3 4 6 8 11 12 12 13 12 9 6 4 3 2 3 3
0 0 0 0 0 0 0 0 0 0 0 0 0 0 0 0 0 1 2 3 3 1 0 1 1 1 1 1 1 1 2 5 8 9 10 11 10 8 4 1 1 1 1 2
0 0 0 0 0 0 0 0 0 0 0 0 0 0 0 0 0 0 1 2 2 1 0 0 0 1 2 2 2 1 1 3 5 6 7 7 6 4 2 0 0 0 0 1
0 0 0 0 0 0 0 0 0 0 0 0 0 0 0 0 0 0 1 1 1 0 0 0 0 1 1 2 3 2 1 2 3 3 3 2 2 1 0 0 0 0 0 0
0 0 0 0 0 0 0 0 0 0 0 0 0 0 0 0 0 0 0 0 0 0 0 0 0 0 0 1 3 3 2 2 3 2 1 0 0 0 0 0 0 0 0 0
0 0 0 0 0 0 0 0 0 0 0 0 0 0 0 0 0 0 0 0 0 0 0 0 0 0 0 1 2 2 2 2 1 1 0 0 0 0 0 0 0 0 0 0
0 0 0 0 0 0 0 0 0 0 0 0 0 0 0 0 0 0 0 0 0 0 0 0 0 0 0 0 1 1 2 1 0 0 0 0 0 0 0 0 0 0 0 0
0 0 0 0 0 0 0 0 0 0 0 0 0 0 0 0 0 0 0 0 0 0 0 0 0 0 0 0 0 0 0 0 0 0 0 0 0 0 0 0 0 0 0 0
0 0 0 0 0 0 0 0 0 0 0 0 0 0 0 0 0 0 0 0 0 0 0 0 0 0 0 0 0 0 0 0 0 0 0 0 0 0 0 0 0 0 0 0
0 0 0 0 0 0 0 0 0 0 0 0 0 0 0 0 0 0 0 0 0 0 0 0 0 0 0 0 0 0 0 0 0 0 0 0 0 0 0 0 0 0 0 0
0 0 0 0 0 0 0 0 0 0 0 0 0 0 0 0 0 0 0 0 0 0 0 0 0 0 0 0 0 0 0 0 0 0 0 0 0 0 0 0 0 0 0 0
0 0 0 0 0 0 0 0 0 0 0 0 0 0 0 0 0 0 0 0 0 0 0 0 0 0 0 0 0 0 0 0 0 0 0 0 0 0 0 0 0 0 0 0
0 0 0 0 0 0 0 0 0 0 0 0 0 0 0 0 0 0 0 0 0 0 0 0 0 0 0 0 0 0 0 0 0 0 0 0 0 0 0 0 0 0 0 0
0 0 0 0 0 0 0 0 0 0 0 0 0 0 0 0 0 0 0 0 0 0 0 0 0 0 0 0 0 0 0 0 0 0 0 0 0 0 0 0 0 0 0 0
0 0 0 0 0 0 0 0 0 0 0 0 0 0 0 0 0 0 0 0 0 0 0 0 0 0 0 0 0 0 0 0 0 0 0 0 0 0 0 0 0 0 0 0
0 0 0 0 0 0 0 0 0 0 0 0 0 0 0 0 0 0 0 0 0 0 0 0 0 0 0 0 0 0 0 0 0 0 0 0 0 0 0 0 0 0 0 0
0 0 0 0 0 0 0 0 0 0 0 0 0 0 0 0 0 0 0 0 0 0 0 0 0 0 0 0 0 0 0 0 0 0 0 0 0 0 0 0 0 0 0 0
0 0 0 0 0 0 0 0 0 0 0 0 0 0 0 0 0 0 0 0 0 0 0 0 0 0 0 0 0 0 0 0 0 0 0 0 0 0 0 0 0 0 0 0
0 0 0 0 0 0 0 0 0 0 0 0 0 0 0 0 0 0 0 0 0 0 0 0 0 0 0 0 0 0 0 0 0 0 0 0 0 0 0 0 0 0 0 0
0 0 0 0 0 0 0 0 0 0 0 0 0 0 0 0 0 0 0 0 0 0 0 0 0 0 0 0 0 0 0 0 0 0 0 0 0 0 0 0 0 0 0 0
0 0 0 0 0 0 0 0 0 0 0 0 0 0 0 0 0 0 0 0 0 0 0 0 0 0 0 0 0 0 0 0 0 0 0 0 0 0 0 0 0 0 0 0
0 0 0 0 0 0 0 0 0 0 0 0 0 0 0 0 0 0 0 0 0 0 0 0 0 0 0 0 0 0 0 0 0 0 0 0 0 0 0 0 0 0 0 0
0 0 0 0 0 0 0 0 0 0 0 0 0 0 0 0 0 0 0 0 0 0 0 0 0 0 0 0 0 0 0 0 0 0 0 0 0 0 0 0 0 0 0 0
0 0 0 0 0 0 0 0 0 0 0 0 0 0 0 0 0 0 0 0 0 0 0 0 0 0 0 0 0 0 0 0 0 0 0 0 0 0 0 0 0 0 0 0
Wind_Speed
3 5 1 4 6 4 2 1 4 5 1 3 4 4 2 3 4 4 3 4 4 4 5 7 8 8 7 6 6 5 4 3 1 1 2 2 2 2 2 1 1 2 3 4
5 2 5 4 3 3 3 2 3 3 2 4 5 4 2 3 3 3 3 3 3 4 6 8 9 9 9 8 7 6 5 3 2 1 1 1 2 1 1 1 1 1 0 2
3 5 2 2 2 3 3 4 4 3 2 4 4 1 1 2 3 4 4 3 3 4 5 7 8 9 9 9 9 7 6 5 3 2 1 1 2 2 1 1 1 2 2 1
3 5 2 2 3 4 4 5 5 3 3 0 1 2 3 2 2 2 3 4 4 5 5 6 7 8 9 8 7 7 7 6 5 3 1 2 2 2 1 1 2 3 3 2
3 2 1 3 4 5 4 1 3 3 4 2 2 2 5 2 3 3 3 4 4 4 5 6 7 7 8 8 8 7 7 7 7 5 2 2 2 2 2 3 3 3 3 3
5 3 3 4 2 2 3 6 6 5 5 1 1 2 5 4 4 4 4 5 4 4 4 5 6 7 7 8 7 7 7 8 8 7 5 4 4 4 4 4 3 2 2 2
5 5 2 1 2 3 4 6 4 5 4 4 1 2 7 3 2 4 6 6 5 4 4 5 7 8 8 9 9 8 8 8 8 8 7 6 5 4 5 4 3 3 2 3
1 5 3 1 2 2 2 6 7 4 4 5 2 4 5 2 2 4 7 7 6 4 4 5 5 6 7 8 8 8 8 8 8 8 7 7 6 4 4 5 4 4 3 3
3 4 4 2 1 4 3 2 4 6 2 1 5 5 2 4 5 6 7 7 6 4 4 4 5 6 7 7 7 7 7 8 8 8 7 8 8 7 6 6 6 5 4 4
5 3 4 2 4 5 3 7 5 5 3 3 5 4 5 7 8 8 8 7 6 4 4 4 4 5 6 6 6 7 8 8 8 7 7 7 8 7 7 7 7 7 6 6
3 2 4 4 2 0 2 3 4 4 4 4 3 7 4 7 9 10 9 8 8 6 4 3 3 4 5 6 7 7 8 8 8 8 8 8 8 7 7 8 7 7 7 8
2 4 1 3 3 1 2 4 6 3 3 4 3 9 2 2 6 9 10 9 8 6 4 3 4 4 5 6 7 7 7 8 7 7 7 8 8 8 8 8 8 7 8 8
2 5 3 6 6 4 1 2 3 4 4 4 4 8 1 4 6 8 10 10 8 7 5 4 4 4 5 5 6 6 7 7 7 7 7 8 8 8 8 8 8 8 8 8
3 3 5 5 6 3 3 3 4 5 4 5 8 8 3 5 8 9 10 10 9 7 6 5 4 4 4 5 5 6 6 6 6 7 8 8 8 8 8 8 8 8 8 9
3 2 2 5 5 4 5 6 5 7 7 8 7 6 6 8 10 11 11 11 10 8 7 6 5 4 4 4 5 5 6 6 6 7 8 7 7 7 8 9 8 8 9 9
4 1 2 3 3 3 5 7 5 5 5 5 4 5 1 6 9 10 11 12 11 9 7 6 5 5 4 4 4 5 5 5 5 7 7 7 7 8 8 8 8 9 9 8
2 1 2 4 5 4 5 5 3 3 2 4 6 4 7 8 11 12 12 11 10 9 8 7 6 5 4 3 4 4 4 4 5 6 6 6 7 7 7 8 9 8 8 8
3 2 2 2 4 4 6 2 2 2 3 3 2 3 7 7 7 6 7 10 10 9 9 7 6 5 4 3 3 4 4 5 5 5 5 5 6 7 7 8 8 7 6 7
6 5 3 2 1 6 6 2 0 1 4 1 4 7 8 10 7 4 4 7 8 9 8 7 6 5 5 4 4 5 5 5 5 5 5 5 6 6 6 7 7 5 6 7
3 3 3 3 2 4 4 4 2 1 4 1 5 10 11 9 5 4 7 8 9 8 7 7 6 6 5 4 4 5 5 5 4 4 5 5 5 6 6 6 6 5 6 6
3 2 2 3 3 6 4 6 2 1 5 1 5 9 10 5 3 7 11 9 9 9 8 8 7 6 5 5 5 5 5 4 4 5 5 5 5 6 6 5 5 6 6 7
0 1 2 2 3 6 4 4 1 3 2 1 5 7 7 7 9 11 11 11 11 10 9 8 7 6 5 5 6 5 4 3 4 6 6 6 5 5 5 6 6 6 6 7
2 3 3 5 6 4 2 3 4 2 1 2 5 7 10 10 10 11 10 11 10 10 8 7 8 7 5 4 5 5 3 4 6 6 6 5 6 5 5 5 6 5 5 5
3 0 1 4 5 4 4 2 2 1 1 3 6 10 10 10 12 11 11 10 9 8 8 7 8 7 5 4 5 4 4 5 6 6 5 5 6 5 5 4 4 4 4 4
5 2 2 4 5 4 3 3 3 4 6 8 8 8 11 14 13 12 11 10 9 8 7 7 7 6 5 4 4 4 5 6 6 6 5 5 5 5 5 5 4 3 2 2
5 5 4 5 3 2 3 2 2 4 6 9 11 9 9 11 13 12 10 8 8 8 7 7 6 6 5 5 4 4 4 6 7 5 4 4 4 4 4 4 5 9 6 5
Wind_Direction
70 75 179 218 194 191 188 237 280 277 303 81 105 118 98 89 96 95 87 74 54 38 22 22 21 19 20 25 26 23 20 11 56 144 175 185 196 194 194 194 171 201 202 204
40 307 237 209 188 186 200 259 276 306 45 113 120 108 98 95 101 104 95 76 49 37 23 20 20 20 17 17 13 15 14 2 353 228 201 187 168 145 145 100 96 89 161 228
183 243 215 178 222 211 226 207 224 210 47 67 116 75 161 97 96 91 81 77 64 56 34 21 16 15 14 15 8 2 357 356 353 338 126 131 118 99 90 72 58 43 30 8
237 259 230 233 243 186 258 229 200 168 119 308 109 225 250 194 166 121 99 81 64 50 39 23 16 12 8 4 2 5 5 4 4 2 82 149 155 147 121 103 85 57 38 25
260 243 256 269 245 184 220 62 117 118 129 84 33 149 272 182 214 195 152 114 83 57 41 24 14 7 6 2 3 4 8 14 13 17 32 97 101 111 104 93 80 66 47 38
248 258 223 231 258 177 136 72 60 53 72 57 234 173 265 220 214 185 159 133 110 76 44 24 12 10 8 8 8 11 16 21 20 27 38 63 86 99 102 88 79 72 61 52
326 322 288 227 18 35 85 86 36 5 11 256 260 208 249 223 203 178 163 143 117 85 48 26 15 10 8 8 13 16 21 24 23 32 41 48 60 78 86 87 80 71 60 51
340 310 304 314 181 178 143 136 154 194 225 274 310 243 254 126 97 117 132 130 117 95 60 39 22 12 9 11 16 20 25 28 29 36 41 45 50 62 69 70 71 63 58 51
182 269 296 324 67 128 119 121 156 131 146 285 282 279 290 134 129 128 132 133 127 109 78 53 32 20 15 15 18 24 32 35 34 36 46 50 50 55 63 65 64 62 54 58
169 245 303 328 60 44 104 141 99 114 148 261 288 272 243 198 188 169 161 153 138 120 91 67 42 27 22 20 21 30 37 42 41 40 48 56 53 53 60 66 64 61 54 57
140 167 316 11 51 320 82 89 99 109 149 166 262 270 234 204 185 175 169 156 146 136 115 86 58 37 30 32 33 34 39 44 43 43 50 55 53 51 58 63 61 61 61 60
95 119 289 290 284 230 155 163 148 155 223 183 200 267 315 181 166 157 152 144 138 130 118 99 75 54 43 40 40 40 40 45 44 47 53 55 53 53 58 60 59 62 64 61
97 103 53 349 347 358 40 158 153 133 127 165 191 262 70 97 123 140 143 141 137 133 125 108 85 67 56 49 46 44 42 44 44 50 55 57 56 56 58 58 59 61 65 64
110 114 159 197 229 252 276 246 167 143 167 214 226 245 226 166 155 151 147 143 141 139 133 120 96 74 65 57 52 50 46 45 50 54 57 57 56 60 61 59 58 59 64 66
72 115 230 243 247 238 246 256 214 197 203 209 242 239 239 189 171 160 152 146 144 143 139 130 115 94 76 66 59 57 52 50 55 62 61 58 58 62 63 61 59 58 60 64
35 74 355 302 279 277 266 265 245 226 217 227 255 264 184 134 138 149 154 153 152 152 146 135 124 113 100 87 78 69 60 54 61 66 68 67 65 65 65 66 63 61 58 58
343 64 36 294 312 338 285 256 226 235 222 201 228 232 141 145 160 162 161 159 156 152 145 141 136 130 118 101 90 82 70 65 69 70 69 69 70 68 65 70 68 64 60 61
189 139 148 286 355 268 254 280 211 229 260 227 216 153 155 146 135 137 153 154 150 148 144 141 138 130 114 98 91 85 80 77 75 75 73 73 75 75 73 72 69 65 63 65
181 160 155 146 260 283 302 329 272 249 291 200 146 131 119 116 99 102 136 141 144 144 140 139 138 130 118 111 109 102 88 85 85 84 83 82 87 86 82 79 75 69 70 66
110 126 136 145 202 256 274 313 304 71 299 169 148 149 145 137 150 178 149 132 129 127 127 129 126 115 111 109 111 104 96 90 88 90 91 88 91 90 87 85 81 75 78 75
46 76 160 183 228 267 284 303 340 181 273 228 155 156 157 165 167 142 136 130 130 128 128 127 122 114 114 115 111 104 97 91 91 94 93 89 88 92 94 87 83 87 85 80
273 160 197 168 213 260 332 354 53 247 295 131 142 145 133 116 116 125 128 130 131 128 126 126 121 114 113 116 112 105 99 97 96 93 90 86 88 94 97 95 87 86 90 84
234 203 208 209 227 262 307 279 280 236 190 161 144 134 127 125 129 128 128 131 129 128 125 123 123 115 109 111 115 115 112 104 100 92 87 85 83 81 90 99 99 88 84 89
298 276 239 278 276 294 310 321 357 22 161 143 137 134 132 131 134 130 130 128 125 122 124 122 121 118 112 108 109 119 120 112 106 99 90 88 91 85 74 74 87 100 102 101
265 298 274 275 288 315 352 16 37 68 98 108 110 119 132 132 135 134 133 131 128 125 123 124 125 124 119 114 107 111 118 113 104 99 95 89 87 93 82 69 56 77 83 138
220 206 210 244 249 250 292 331 73 108 118 124 120 115 123 133 134 131 130 126 126 127 123 121 121 121 120 119 113 113 122 121 116 107 102 100 98 95 96 96 73 47 58 85